Simultaneous Nadir Overpasses (SNOs) Predictions

Prediction of SNOs over PacNW region [( 10.00, 139.50) to ( 22.70, 165.60)] between NOAA-19 and NPP Satellites:

Table of predicted SNOs over PacNW region for the next 30.0 days since TLE Epoch: 12/6/2013
Index Date (NOAA-19) Time (NOAA-19) NOAA-19 Lat,Lon Date (NPP) Time (NPP) NPP Lat,Lon Distance(km) Time Diff (sec)
1 12/06/2013 15:28:55 22.60, 157.42 12/06/2013 15:31:46 23.72, 152.63 505.49 171
2 12/07/2013 02:45:17 22.69, 160.86 12/07/2013 02:44:31 21.90, 157.03 402.87 46
3 12/19/2013 03:53:22 10.10, 146.09 12/19/2013 03:56:58 7.72, 141.32 586.80 216
4 12/19/2013 14:50:12 13.15, 165.57 12/19/2013 14:50:27 14.14, 161.36 468.00 15
5 12/19/2013 16:29:49 21.73, 142.15 12/19/2013 16:29:33 22.59, 138.03 434.27 16
6 12/20/2013 03:45:55 22.69, 145.81 12/20/2013 03:42:18 23.03, 142.44 346.90 217
7 01/01/2014<
